User: anonymous   Login
Location: Dehesa de la Cepeda
(40.6574°N, 4.3013°W)
Time: 06:16:10
(UTC+00:00)
Language:

Cosmos 1844 - Orbit

View from above orbital plane
View from above orbital plane
View from above satellite
View from above satellite

Ground track
Ground track

The orbit data is extracted from the following two-line orbital elements,

1 17973U 87041A   20273.41649730 -.00000128 +00000-0 -41516-4 0  9999
2 17973 070.8979 263.9335 0028690 127.7172 232.6557 14.14112992722614
Epoch (UTC): 29 September 2020 09:59:45
Eccentricity: 0.0028690
inclination: 70.8979°
perigee height: 824 km
apogee height: 866 km
right ascension of ascending node: 263.9335°
argument of perigee: 127.7172°
revolutions per day: 14.14112992
mean anomaly at epoch: 232.6557°
orbit number at epoch: 72261

The dashed part of the orbit path shows where the satellite is in the earth's shadow,  

DLR